Date,TemperatureHighF,TemperatureAvgF,TemperatureLowF,DewpointHighF,DewpointAvgF,DewpointLowF,HumidityHigh,HumidityAvg,HumidityLow,PressureMaxIn,PressureMinIn,WindSpeedMaxMPH,WindSpeedAvgMPH,GustSpeedMaxMPH,PrecipitationSumIn
2013-1-1,18,9,3,10,2,-100,88,78,60,30.66,30.32,11,-10,11,0.01
2013-1-2,22,10,2,9,3,-5,86,74,57,30.70,30.56,3,0,9,0.00
2013-1-3,20,6,-4,4,-3,-9,79,67,47,30.84,30.70,6,1,7,0.00
2013-1-4,28,12,2,8,1,-5,77,64,43,30.81,30.55,4,1,5,0.00
2013-1-5,31,14,4,10,3,-2,79,63,38,30.75,30.61,5,1,7,0.01
2013-1-6,32,17,7,10,4,-2,69,57,38,30.71,30.38,6,1,8,0.00
2013-1-7,36,21,12,13,6,1,66,53,38,30.39,30.22,5,1,8,0.00
2013-1-8,34,22,13,14,8,2,72,57,43,30.63,30.25,7,1,10,0.00
2013-1-9,37,24,13,18,12,7,78,62,45,30.65,30.28,7,1,8,0.00
2013-1-10,38,27,17,25,14,8,90,61,32,30.27,29.58,25,5,37,0.00
2013-1-11,34,16,6,22,9,0,91,75,54,30.05,29.39,27,9,39,0.00
2013-1-12,13,4,-4,2,-3,-10,82,70,51,30.34,30.06,7,1,10,0.00
2013-1-13,11,2,-4,2,-4,-8,83,78,63,30.46,30.32,7,0,11,0.00
2013-1-14,9,-2,-10,-3,-9,-16,84,73,55,30.73,30.46,8,1,10,0.00
2013-1-15,8,-2,-12,-4,-10,-18,86,68,54,31.06,30.73,5,0,7,0.00
2013-1-16,29,12,0,9,2,-7,79,66,44,31.07,30.86,4,0,5,0.01
2013-1-17,35,19,9,16,10,4,84,70,44,30.90,30.69,5,1,6,0.00
2013-1-18,33,17,10,15,10,6,83,74,49,30.70,30.57,4,1,5,0.00
2013-1-19,39,26,11,14,9,3,74,51,33,30.69,30.57,4,0,10,0.00
2013-1-20,40,24,12,12,6,1,65,49,28,30.60,30.44,5,1,6,0.00
2013-1-21,41,24,12,13,6,1,62,47,32,30.60,30.46,5,1,6,0.00
2013-1-22,42,25,13,12,4,-2,53,42,26,30.58,30.48,5,1,7,0.00
2013-1-23,41,28,16,14,4,-2,47,37,23,30.61,30.45,4,0,5,0.00
2013-1-24,40,30,22,29,18,7,94,64,34,30.47,30.32,12,1,15,0.00
2013-1-25,38,32,29,36,31,28,96,94,84,30.40,30.24,2,0,5,0.09
2013-1-26,39,32,28,33,30,27,96,91,73,30.23,29.81,4,0,7,0.01
2013-1-27,41,34,29,34,28,23,96,81,59,29.93,29.75,20,3,30,0.30
2013-1-28,35,25,14,29,23,12,95,92,67,29.86,29.64,16,4,24,0.01
2013-1-29,16,11,4,14,8,1,92,87,84,30.33,29.86,10,2,13,0.00
2013-1-30,18,13,7,16,11,5,92,89,87,30.50,30.33,6,0,10,0.00
2013-1-31,32,23,18,28,20,16,92,88,79,30.59,30.44,9,1,14,0.11